This demonstration page uses our WeatherBlox Daily Observations layout. Learn more.

Left ArrowRight Arrow

44.89941, -97.11507

Hourly Observations for August 7, 2016

Temp ( °F °C ) Dew Point ( °F °C ) Humidity (%) Winds ( mph kmh ) Pressure ( in mb ) Visibility ( mi km ) Precip ( " mm )
12:53 am 00:53 Clear 65 18.3 57 13.9 76 76 S 5 7 30.07 1018 10 16 0.00 0.00
1:53 am 01:53 Clear 63 17.2 57 13.9 81 81 Calm 30.07 1018 10 16 0.00 0.00
2:53 am 02:53 Clear 61 16.1 56 13.3 84 84 Calm 30.06 1018 10 16 0.00 0.00
3:53 am 03:53 Clear 61 16.1 56 13.3 84 84 Calm 30.06 1018 10 16 0.00 0.00
4:53 am 04:53 Clear 57 13.9 54 12.2 90 90 Calm 30.08 1019 10 16 0.00 0.00
5:53 am 05:53 Clear 56 13.3 53 11.7 90 90 Calm 30.09 1019 10 16 0.00 0.00
6:53 am 06:53 Sunny 58 14.4 54 12.2 87 87 Calm 30.10 1019 10 16 0.00 0.00
7:53 am 07:53 Sunny 65 18.3 58 14.4 78 78 SSE 3 6 30.09 1019 10 16 0.00 0.00
8:53 am 08:53 Sunny 68 20 60 15.6 76 76 S 6 9 30.09 1019 10 16 0.00 0.00
9:53 am 09:53 Sunny 73 22.8 59 15 62 62 S 6 9 30.09 1019 10 16 0.00 0.00
10:53 am 10:53 Sunny 76 24.4 58 14.4 54 54 S 9 15 30.08 1019 10 16 0.00 0.00
11:53 am 11:53 Partly Cloudy 78 25.6 54 12.2 43 43 VRB 7 11 30.08 1019 10 16 0.00 0.00
12:53 pm 12:53 Partly Cloudy 79 26.1 52 11.1 39 39 SE 8 13 30.07 1018 10 16 0.00 0.00
1:53 pm 13:53 Mostly Cloudy 79 26.1 53 11.7 41 41 ESE 7 11 30.06 1018 10 16 0.00 0.00
2:53 pm 14:53 Mostly Cloudy 81 27.2 57 13.9 44 44 SSE 10 17 30.06 1018 10 16 0.00 0.00
3:53 pm 15:53 Partly Cloudy 81 27.2 56 13.3 42 42 S 10 17 30.04 1017 10 16 0.00 0.00
4:53 pm 16:53 Mostly Sunny 80 26.7 56 13.3 44 44 SSE 10 17 30.03 1017 10 16 0.00 0.00
5:53 pm 17:53 Mostly Sunny 80 26.7 56 13.3 44 44 SE 9 15 30.03 1017 10 16 0.00 0.00
6:53 pm 18:53 Sunny 78 25.6 54 12.2 43 43 SE 10 17 30.01 1016 10 16 0.00 0.00
7:53 pm 19:53 Mostly Sunny 76 24.4 55 12.8 48 48 SE 7 11 30.00 1016 10 16 0.00 0.00
8:53 pm 20:53 Clear 73 22.8 56 13.3 55 55 ESE 5 7 30.01 1016 10 16 0.00 0.00
9:53 pm 21:53 Clear 71 21.7 57 13.9 61 61 ESE 5 7 30.01 1016 10 16 0.00 0.00
10:53 pm 22:53 Clear 68 20 57 13.9 68 68 SE 6 9 30.00 1016 10 16 0.00 0.00
11:53 pm 23:53 Mostly Clear 68 20 58 14.4 70 70 SE 7 11 29.98 1015 10 16 0.00 0.00

Powered by AerisWeather